Location: Bernay
(48.6766°N, 2.9386°E)
Time: 15:18:22
(UTC+00:00)

SL-16 R/B - Visible Passes

Search period start: 11 April 2026 00:00
Search period end: 21 April 2026 00:00
Orbit: 839 x 848 km, 71.0° (Epoch: 11 April)

Date Brightness Start Highest point End Pass type
(mag) Time Alt. Az. Time Alt. Az. Time Alt. Az.
11 Apr 4.7 01:37:41 10° NW 01:39:58 12° NNW 01:42:17 10° N visible
11 Apr 3.6 21:58:05 26° ENE 21:58:05 26° ENE 22:00:51 10° NE visible
11 Apr 3.1 23:39:53 43° NW 23:39:53 43° NW 23:45:08 10° NNE visible
12 Apr 4.7 01:23:00 10° NW 01:25:26 13° NNW 01:27:52 10° N visible
12 Apr 3.5 21:43:19 27° ENE 21:43:19 27° ENE 21:46:19 10° NE visible
12 Apr 3.0 23:25:06 44° WNW 23:25:12 44° NW 23:30:39 10° NNE visible
13 Apr 4.7 01:08:21 10° WNW 01:10:53 13° NNW 01:13:26 10° N visible
13 Apr 3.3 21:28:27 28° ENE 21:28:27 28° ENE 21:31:48 10° NE visible
13 Apr 3.0 23:10:14 45° WNW 23:10:42 46° NW 23:16:10 10° NNE visible
14 Apr 4.7 00:53:41 10° WNW 00:56:20 13° NNW 00:59:00 10° N visible
14 Apr 5.1 04:28:52 10° N 04:30:39 11° NNE 04:32:26 10° NE visible
14 Apr 3.2 21:13:28 30° E 21:13:28 30° E 21:17:17 10° NE visible
14 Apr 3.0 22:55:15 43° W 22:56:11 47° NW 23:01:41 10° NNE visible
15 Apr 4.8 00:39:02 10° WNW 00:41:48 14° NNW 00:44:35 10° N visible
15 Apr 5.1 04:14:28 10° N 04:16:06 11° NNE 04:17:44 10° NE visible
15 Apr 3.0 20:58:20 31° E 20:58:20 31° E 21:02:45 10° NE visible
15 Apr 2.9 22:40:06 38° W 22:41:41 49° NW 22:47:13 10° NNE visible
16 Apr 4.8 00:24:23 10° WNW 00:27:16 14° NNW 00:30:08 10° N visible
16 Apr 5.2 04:00:06 10° N 04:01:33 11° NNE 04:02:59 10° NE visible
16 Apr 2.9 20:42:58 30° ESE 20:43:20 30° ESE 20:48:13 10° NE visible
16 Apr 2.9 22:24:43 31° WSW 22:27:11 51° NW 22:32:44 10° NNE visible
17 Apr 4.8 00:09:45 10° WNW 00:12:42 14° NNW 00:15:41 10° N visible
17 Apr 5.3 03:45:45 10° NNE 03:47:00 11° NNE 03:48:15 10° NE visible
17 Apr 3.0 20:27:15 25° SE 20:28:52 29° ESE 20:33:41 10° NE visible
17 Apr 2.9 22:08:58 21° SW 22:12:40 52° NW 22:18:15 10° NNE visible
17 Apr 4.8 23:55:06 10° WNW 23:58:10 15° NNW 00:01:15 10° N visible
18 Apr 5.3 03:31:26 10° NNE 03:32:27 10° NNE 03:33:28 10° NE visible
18 Apr 3.0 20:10:54 16° SSE 20:14:24 28° ESE 20:19:10 10° NE visible
18 Apr 2.8 21:52:38 10° SW 21:58:10 54° WNW 22:03:45 10° NNE visible
18 Apr 4.9 23:40:28 10° WNW 23:43:37 15° NNW 23:46:48 10° N visible
19 Apr 5.4 03:17:11 10° NNE 03:17:53 10° NNE 03:18:37 10° NNE visible
19 Apr 3.1 19:55:16 10° SSE 19:59:56 27° ESE 20:04:37 10° NE visible
19 Apr 2.8 21:38:07 10° SW 21:43:40 56° WNW 21:49:16 10° NNE visible
19 Apr 4.9 23:25:50 10° WNW 23:29:05 15° NNW 23:32:21 10° N visible
20 Apr 3.1 19:40:52 10° SSE 19:45:27 26° ESE 19:50:05 10° NE visible
20 Apr 2.8 21:23:35 10° SW 21:29:10 58° WNW 21:34:47 10° NNE visible
20 Apr 4.9 23:11:13 10° WNW 23:14:32 16° NW 23:17:54 10° N visible
